TimeEST,TemperatureF,Dew PointF,Humidity,Sea Level PressureIn,VisibilityMPH,Wind Direction,Wind SpeedMPH,Gust SpeedMPH,PrecipitationIn,Events,Conditions,WindDirDegrees,DateUTC
12:16 AM,33.8,19.4,56,29.81,10.0,NNW,13.8,24.2,N/A,,Scattered Clouds,330,2013-02-17 05:16:00
12:36 AM,33.8,19.4,56,29.81,10.0,NNW,15.0,20.7,N/A,,Clear,340,2013-02-17 05:36:00
12:56 AM,32.0,19.4,60,29.81,10.0,NNW,12.7,23.0,N/A,,Clear,340,2013-02-17 05:56:00
1:16 AM,32.0,19.4,60,29.81,10.0,NNW,15.0,20.7,N/A,,Clear,330,2013-02-17 06:16:00
1:36 AM,32.0,17.6,55,29.81,10.0,North,16.1,25.3,N/A,,Scattered Clouds,350,2013-02-17 06:36:00
1:56 AM,32.0,17.6,55,29.81,10.0,NNW,13.8,26.5,N/A,,Scattered Clouds,340,2013-02-17 06:56:00
2:16 AM,32.0,17.6,55,29.81,10.0,NNW,16.1,24.2,N/A,,Scattered Clouds,330,2013-02-17 07:16:00
2:36 AM,32.0,17.6,55,29.81,10.0,North,18.4,26.5,N/A,,Scattered Clouds,350,2013-02-17 07:36:00
5:17 AM,30.2,14.0,51,29.84,10.0,NNW,16.1,25.3,N/A,,Scattered Clouds,330,2013-02-17 10:17:00
5:37 AM,30.2,19.4,64,29.84,10.0,WNW,15.0,19.6,N/A,,Scattered Clouds,300,2013-02-17 10:37:00
5:57 AM,30.2,19.4,64,29.84,10.0,WNW,15.0,18.4,N/A,,Scattered Clouds,300,2013-02-17 10:57:00
6:17 AM,30.2,19.4,64,29.85,10.0,WNW,16.1,-,N/A,,Clear,300,2013-02-17 11:17:00
6:37 AM,30.2,17.6,60,29.85,10.0,WNW,12.7,18.4,N/A,,Clear,300,2013-02-17 11:37:00
6:57 AM,30.2,17.6,60,29.86,10.0,WNW,13.8,20.7,N/A,,Clear,290,2013-02-17 11:57:00
7:17 AM,28.4,17.6,64,29.87,10.0,WNW,16.1,20.7,N/A,,Clear,290,2013-02-17 12:17:00
7:37 AM,30.2,14.0,51,29.87,10.0,WNW,17.3,23.0,N/A,,Clear,290,2013-02-17 12:37:00
7:57 AM,30.2,14.0,51,29.88,10.0,WNW,17.3,23.0,N/A,,Clear,300,2013-02-17 12:57:00
8:17 AM,30.2,12.2,47,29.89,10.0,WNW,17.3,21.9,N/A,,Clear,300,2013-02-17 13:17:00
8:37 AM,30.2,12.2,47,29.89,10.0,WNW,17.3,24.2,N/A,,Clear,290,2013-02-17 13:37:00
8:57 AM,30.2,10.4,44,29.90,10.0,WNW,16.1,28.8,N/A,,Clear,300,2013-02-17 13:57:00
9:37 AM,32.0,10.4,41,29.90,10.0,WNW,20.7,27.6,N/A,,Clear,290,2013-02-17 14:37:00
9:57 AM,32.0,10.4,41,29.91,10.0,WNW,19.6,27.6,N/A,,Clear,290,2013-02-17 14:57:00
10:17 AM,32.0,10.4,41,29.91,10.0,WNW,18.4,25.3,N/A,,Clear,290,2013-02-17 15:17:00
10:37 AM,32.0,10.4,41,29.92,10.0,WNW,17.3,26.5,N/A,,Clear,300,2013-02-17 15:37:00
10:57 AM,32.0,10.4,41,29.92,10.0,WNW,17.3,29.9,N/A,,Clear,300,2013-02-17 15:57:00
11:17 AM,32.0,10.4,41,29.92,10.0,WNW,24.2,31.1,N/A,,Clear,300,2013-02-17 16:17:00
11:37 AM,32.0,10.4,41,29.92,10.0,WNW,23.0,28.8,N/A,,Clear,290,2013-02-17 16:37:00
11:57 AM,32.0,10.4,41,29.92,10.0,WNW,24.2,32.2,N/A,,Clear,300,2013-02-17 16:57:00
12:18 PM,32.0,10.4,41,29.92,10.0,WNW,19.6,29.9,N/A,,Scattered Clouds,300,2013-02-17 17:18:00
12:58 PM,32.0,10.4,41,29.92,10.0,WNW,21.9,31.1,N/A,,Clear,290,2013-02-17 17:58:00
1:18 PM,32.0,10.4,41,29.93,10.0,WNW,23.0,28.8,N/A,,Clear,290,2013-02-17 18:18:00
1:38 PM,32.0,12.2,44,29.93,10.0,WNW,19.6,31.1,N/A,,Clear,300,2013-02-17 18:38:00
1:58 PM,32.0,10.4,41,29.93,10.0,WNW,23.0,28.8,N/A,,Clear,300,2013-02-17 18:58:00
2:18 PM,32.0,10.4,41,29.94,10.0,WNW,21.9,31.1,N/A,,Clear,290,2013-02-17 19:18:00
2:38 PM,30.2,17.6,60,29.95,4.0,WNW,19.6,34.5,N/A,,Mostly Cloudy,290,2013-02-17 19:38:00
2:58 PM,32.0,14.0,48,29.95,10.0,WNW,24.2,29.9,N/A,,Scattered Clouds,290,2013-02-17 19:58:00
3:18 PM,32.0,14.0,48,29.95,10.0,West,17.3,28.8,N/A,,Clear,280,2013-02-17 20:18:00
3:38 PM,32.0,12.2,44,29.95,10.0,WNW,20.7,26.5,N/A,,Clear,300,2013-02-17 20:38:00
3:58 PM,32.0,14.0,48,29.97,10.0,WNW,20.7,33.4,N/A,,Clear,300,2013-02-17 20:58:00
4:18 PM,32.0,14.0,48,29.98,10.0,WNW,21.9,29.9,N/A,,Clear,290,2013-02-17 21:18:00
4:38 PM,32.0,12.2,44,29.99,10.0,NW,19.6,31.1,N/A,,Clear,310,2013-02-17 21:38:00
4:58 PM,32.0,14.0,48,29.99,10.0,WNW,20.7,-,N/A,,Scattered Clouds,300,2013-02-17 21:58:00
5:18 PM,30.2,14.0,51,30.01,7.0,WNW,26.5,34.5,N/A,,Scattered Clouds,300,2013-02-17 22:18:00
5:38 PM,30.2,14.0,51,30.02,7.0,WNW,20.7,27.6,N/A,,Scattered Clouds,290,2013-02-17 22:38:00
5:58 PM,30.2,12.2,47,30.03,10.0,West,21.9,27.6,N/A,,Clear,280,2013-02-17 22:58:00
6:18 PM,30.2,14.0,51,30.05,10.0,WNW,23.0,29.9,N/A,,Clear,290,2013-02-17 23:18:00
6:38 PM,30.2,10.4,44,30.05,10.0,WNW,25.3,32.2,N/A,,Clear,290,2013-02-17 23:38:00
6:58 PM,30.2,10.4,44,30.07,10.0,WNW,21.9,32.2,N/A,,Clear,300,2013-02-17 23:58:00
7:18 PM,30.2,10.4,44,30.07,10.0,WNW,24.2,31.1,N/A,,Clear,290,2013-02-18 00:18:00
7:38 PM,28.4,10.4,47,30.09,10.0,WNW,21.9,31.1,N/A,,Clear,290,2013-02-18 00:38:00
7:58 PM,28.4,10.4,47,30.09,10.0,WNW,17.3,26.5,N/A,,Clear,290,2013-02-18 00:58:00
8:19 PM,28.4,10.4,47,30.10,10.0,WNW,20.7,26.5,N/A,,Clear,290,2013-02-18 01:19:00
8:39 PM,28.4,10.4,47,30.11,10.0,WNW,20.7,31.1,N/A,,Clear,290,2013-02-18 01:39:00
8:59 PM,28.4,10.4,47,30.12,10.0,WNW,18.4,27.6,N/A,,Clear,290,2013-02-18 01:59:00
9:19 PM,28.4,10.4,47,30.14,10.0,WNW,26.5,31.1,N/A,,Clear,290,2013-02-18 02:19:00
9:39 PM,28.4,10.4,47,30.15,10.0,WNW,18.4,27.6,N/A,,Clear,300,2013-02-18 02:39:00
9:59 PM,28.4,8.6,43,30.15,10.0,WNW,24.2,31.1,N/A,,Clear,290,2013-02-18 02:59:00
10:19 PM,28.4,8.6,43,30.16,10.0,WNW,20.7,31.1,N/A,,Clear,290,2013-02-18 03:19:00
10:39 PM,28.4,8.6,43,30.17,10.0,WNW,20.7,27.6,N/A,,Clear,300,2013-02-18 03:39:00
10:59 PM,28.4,10.4,47,30.17,10.0,WNW,20.7,24.2,N/A,,Scattered Clouds,290,2013-02-18 03:59:00
11:19 PM,26.6,8.6,47,30.18,10.0,NW,19.6,27.6,N/A,,Clear,310,2013-02-18 04:19:00
11:39 PM,26.6,8.6,47,30.18,10.0,WNW,17.3,23.0,N/A,,Clear,300,2013-02-18 04:39:00
11:59 PM,26.6,8.6,47,30.19,10.0,WNW,20.7,26.5,N/A,,Clear,290,2013-02-18 04:59:00